Weather History for Cedar City, UT

Change the Weather History Date:

Thursday, March 13, 2014

  Actual Average Record
Temperature  
Mean Temperature 39 °F 40 °F  
Max Temperature 54 °F 54 °F 77 °F (2007)
Min Temperature 24 °F 26 °F 5 °F (2006)
Degree Days  
Heating Degree Days 26 25  
Month to date heating degree days 319 347  
Since 1 July heating degree days 4906 4909  
Cooling Degree Days 0 0  
Month to date cooling degree days 0 0  
Year to date cooling degree days 0 0  
Moisture  
Dew Point 19 °F    
Average Humidity 48    
Maximum Humidity 68    
Minimum Humidity 28    
Precipitation  
Precipitation 0.00 in 0.05 in 0.65 in (1981)
Month to date precipitation 0.12 0.56  
Year to date precipitation 1.06 2.42  
Sea Level Pressure  
Sea Level Pressure 30.01 in    
Wind  
Wind Speed 3 mph (SSE)    
Max Wind Speed 10 mph    
Max Gust Speed 15 mph    
Visibility 10 miles    
Events      
T = Trace of Precipitation, MM = Missing Value Source: NWS Daily Summary

Daily Weather History Graph

Daily Weather History Graph

Search for Another Location

Airport:

Trip Planner

Search our weather history database for the weather conditions in past years. The results will help you decide how hot, cold, wet, or windy it might be!

Date:

Astronomy

Mar. 13, 2014 Rise Set
Actual Time 7:46 AM MDT 7:37 PM MDT
Civil Twilight 7:20 AM MDT 8:03 PM MDT
Nautical Twilight 6:49 AM MDT 8:34 PM MDT
Astronomical Twilight 6:19 AM MDT 9:05 PM MDT
Moon 5:09 PM MDT (3/13) 5:52 AM MDT (3/13)
Length of Visible Light 12h 43m
Length of Day
11h 51m
Waxing Gibbous, 92% of the Moon is Illuminated
Mar 13
Waxing Gibbous
Mar 16
Full
Mar 23
Last Quarter
Mar 30
New
Apr 7
First Quarter

Hourly Weather History & Observations

Time (MDT) Temp. Windchill Dew Point Humidity Pressure Visibility Wind Dir Wind Speed Gust Speed Precip Events Conditions
12:53 AM 36.0 °F 33.3 °F 12.9 °F 39% 30.10 in 10.0 mi South 3.5 mph - N/A   Overcast
1:53 AM 33.1 °F 28.7 °F 12.9 °F 43% 30.09 in 10.0 mi SSW 4.6 mph - N/A   Overcast
2:53 AM 30.9 °F - 12.0 °F 46% 30.07 in 10.0 mi Calm Calm - N/A   Partly Cloudy
3:53 AM 30.0 °F 25.2 °F 12.9 °F 49% 30.04 in 10.0 mi SE 4.6 mph - N/A   Clear
4:53 AM 28.9 °F 23.9 °F 14.0 °F 54% 30.04 in 10.0 mi SE 4.6 mph - N/A   Mostly Cloudy
5:53 AM 30.0 °F 26.5 °F 16.0 °F 56% 30.03 in 10.0 mi SSW 3.5 mph - N/A   Mostly Cloudy
6:53 AM 28.9 °F - 16.0 °F 58% 30.05 in 10.0 mi Calm Calm - N/A   Mostly Cloudy
7:53 AM 26.1 °F 21.9 °F 15.1 °F 63% 30.08 in 10.0 mi SSE 3.5 mph - N/A   Partly Cloudy
8:53 AM 32.0 °F - 19.0 °F 59% 30.07 in 10.0 mi Calm Calm - N/A   Overcast
9:53 AM 36.0 °F - 19.9 °F 52% 30.07 in 10.0 mi Calm Calm - N/A   Partly Cloudy
10:53 AM 39.0 °F - 16.0 °F 39% 30.06 in 10.0 mi Calm Calm - N/A   Overcast
11:53 AM 43.0 °F - 15.1 °F 32% 30.04 in 10.0 mi Calm Calm - N/A   Overcast
12:53 PM 48.9 °F - 17.1 °F 28% 30.00 in 10.0 mi Calm Calm - N/A   Scattered Clouds
1:53 PM 53.1 °F - 21.0 °F 29% 29.98 in 10.0 mi ESE 4.6 mph - N/A   Partly Cloudy
2:53 PM 53.1 °F - 23.0 °F 31% 29.95 in 10.0 mi Variable 4.6 mph - N/A   Scattered Clouds
3:53 PM 53.1 °F - 23.0 °F 31% 29.94 in 10.0 mi Variable 4.6 mph - N/A   Partly Cloudy
4:53 PM 53.1 °F - 23.0 °F 31% 29.93 in 10.0 mi Variable 3.5 mph - N/A   Clear
5:53 PM 53.1 °F - 21.9 °F 30% 29.92 in 10.0 mi Calm Calm - N/A   Clear
6:53 PM 51.1 °F - 21.0 °F 31% 29.93 in 10.0 mi SSW 3.5 mph - N/A   Clear
7:53 PM 45.0 °F 42.6 °F 21.9 °F 40% 29.97 in 10.0 mi SSW 4.6 mph - N/A   Scattered Clouds
8:53 PM 45.0 °F 42.6 °F 25.0 °F 46% 29.96 in 10.0 mi NE 4.6 mph - N/A   Overcast
9:53 PM 45.0 °F 41.8 °F 27.0 °F 49% 29.96 in 10.0 mi ESE 5.8 mph - N/A   Overcast
10:53 PM 39.0 °F 36.8 °F 26.1 °F 60% 29.99 in 10.0 mi WNW 3.5 mph - N/A   Partly Cloudy
11:53 PM 36.0 °F - 21.9 °F 57% 29.99 in 10.0 mi Calm Calm - N/A   Clear